Location: Faicchio
(41.2833°N, 14.4833°E)
Time: 06:40:29
(UTC+00:00)

H-2A R/B - Pass Details

Date: 15 June 2025
Orbit: 556 x 620 km, 98.4° (Epoch: 16 July)

Event Time Altitude Azimuth Distance (km) Brightness Sun altitude
Rises 01:09:25 0° 11° (N) 2,747 6.7 -19.0°
Reaches altitude 10° 01:11:33 10° 10° (N) 1,849 5.5 -18.8°
Maximum altitude 01:15:32 76° 286° (WNW) 582 1.8 -18.4°
Enters shadow 01:16:44 44° 210° (SSW) 786 2.1 -18.3°
